Voltar ao catálogo

COSMOS 2491 DEB

LostPO
NORAD 44993·DEBRIS·🇷🇺 Russia

Lançado Dec 25, 2013 de Plesetsk Cosmodrome

Loading…

Próximas Passagens (próximas 24 horas)

TLE

ObsoletoSource: Space-Track

Época: Feb 13, 2020, 14:43 UTC

1 44993U 13076P   20044.61324866  .00013394  00000-0  12707+0 0  9998
2 44993  82.4254 174.1862 0135838 199.0922 160.5025 12.19093823  4488

Acompanhe COSMOS 2491 DEB em tempo real com AllMySat

Download on the App Store